Temperature
22 22 21 21 21 21 20 20 20 20 19 19 19 19 19 19 19 19 19 19 19 19 19 19 19 19 19 19 19 18 18 18 18 18 19 19 19 19 19 19 19 19 18
22 21 21 21 21 21 21 20 20 20 20 19 19 19 19 19 19 19 19 19 19 19 19 19 19 19 19 19 18 18 18 18 18 18 18 18 19 19 19 19 19 19 18
22 22 21 21 21 21 21 21 20 20 20 20 19 19 19 19 19 19 19 19 19 19 19 19 19 19 19 19 19 19 18 18 18 18 18 18 18 18 18 18 18 18 18
23 22 22 21 21 21 21 21 21 20 20 20 19 19 19 19 19 19 19 19 19 19 19 19 19 19 19 19 19 19 18 18 18 18 18 18 18 18 18 18 18 18 18
23 22 22 22 22 22 21 21 21 20 20 20 20 19 19 19 19 19 19 19 19 19 19 19 19 19 19 19 19 19 18 18 18 18 18 18 18 18 18 18 18 18 18
23 23 23 22 22 22 21 21 21 20 20 20 20 20 19 19 19 19 19 19 19 19 19 19 19 19 19 19 19 18 18 18 18 18 18 18 18 18 18 18 18 18 18
24 23 23 22 22 22 21 21 21 21 20 20 20 20 20 19 19 19 19 19 19 19 19 19 19 19 19 19 19 18 18 18 18 18 18 18 18 18 18 18 18 18 18
24 24 23 23 23 22 22 21 21 21 21 20 20 20 20 20 20 19 19 19 19 19 19 19 19 19 19 19 18 18 18 18 18 18 18 18 18 18 18 18 18 17 17
24 24 23 23 23 22 22 22 22 21 21 21 20 20 20 20 20 19 19 19 19 19 19 19 19 19 19 18 18 18 18 18 18 18 18 18 18 18 18 18 18 17 17
24 24 23 23 23 23 22 22 22 21 21 21 21 20 20 20 20 19 19 19 19 19 19 19 19 18 18 18 18 18 18 18 18 18 18 18 18 18 18 17 17 17 17
24 24 23 23 23 23 22 22 21 21 21 21 21 20 20 20 20 19 19 19 19 19 19 19 19 18 18 18 18 18 18 18 18 18 18 18 17 17 17 17 17 17 17
24 24 24 23 23 22 22 22 22 21 21 21 21 20 20 20 20 19 19 19 19 19 19 18 18 18 18 18 18 18 18 18 18 18 17 17 17 17 17 17 17 17 17
23 24 23 23 23 22 22 22 22 21 21 21 20 20 20 20 20 19 19 19 19 19 19 18 18 18 18 18 18 18 17 17 17 17 17 17 17 17 17 17 17 17 17
23 23 23 23 22 22 22 22 21 21 21 20 20 20 20 20 20 19 19 19 19 19 19 18 18 18 18 18 17 17 17 17 17 17 17 17 17 17 17 17 17 16 16
22 22 22 22 22 22 21 21 21 21 21 20 20 20 20 20 19 19 19 19 18 18 18 18 18 18 17 17 17 17 17 17 17 17 17 17 16 16 16 16 16 16 16
22 22 22 22 21 21 21 21 21 21 21 20 20 20 20 19 19 19 18 18 18 18 18 18 17 17 17 17 17 17 17 17 17 17 16 16 16 16 16 16 16 16 16
21 22 21 21 21 21 21 21 21 20 20 20 20 20 19 19 19 19 18 18 18 18 17 17 17 17 17 17 17 16 16 16 16 16 16 16 16 16 16 16 16 16 15
21 21 21 21 21 21 21 21 20 20 20 20 19 19 19 19 19 18 18 18 18 17 17 17 17 17 17 17 16 16 16 16 16 16 16 16 16 16 16 16 15 15 15
21 21 21 21 21 21 20 20 20 20 19 19 19 19 19 18 18 18 18 17 17 17 17 16 16 16 17 16 16 16 16 16 16 16 16 16 15 15 15 15 15 15 15
20 20 20 20 20 20 20 20 19 19 19 18 18 18 18 18 17 17 17 17 16 16 16 16 16 16 16 16 16 16 15 15 15 15 15 15 15 15 15 15 15 14 15
19 19 19 19 19 19 19 19 19 18 18 18 18 18 17 17 17 17 17 17 16 16 16 16 16 15 15 15 15 15 15 15 15 15 15 15 15 15 14 14 14 14 14
19 18 18 18 18 18 18 18 18 18 18 17 17 17 17 17 17 16 16 16 16 16 15 15 15 15 15 15 15 15 15 15 14 15 15 15 14 14 14 14 14 14 13
18 18 18 18 17 17 17 17 17 17 17 17 17 17 16 16 16 16 16 16 15 15 15 15 15 15 14 14 14 14 14 14 14 14 14 14 14 14 14 14 14 14 13
17 17 17 17 17 16 16 16 16 16 16 16 16 16 16 16 16 15 15 15 15 15 15 15 15 14 14 14 14 14 14 14 14 14 14 14 13 13 13 13 13 13 13
17 17 17 16 16 16 16 16 16 16 16 16 15 15 15 15 15 15 15 15 15 15 15 15 14 14 14 14 14 14 14 14 14 14 13 13 13 13 13 13 13 13 12
16 16 16 16 16 16 15 15 15 15 15 15 15 15 15 15 15 14 14 15 15 14 14 14 14 14 14 14 14 13 13 13 13 13 13 13 13 12 12 12 12 12 12
Wind_Speed
11 13 14 14 13 12 11 11 10 9 7 5 4 4 3 3 3 4 8 9 9 9 6 4 3 3 3 3 3 2 1 1 1 1 2 3 3 2 3 3 3 4 7
10 12 13 14 14 14 12 11 10 10 9 7 5 4 4 4 4 4 5 9 9 9 7 5 4 4 3 3 3 2 1 1 1 2 1 2 4 3 3 2 3 3 3
17 15 15 15 15 15 15 14 12 10 9 8 4 3 2 1 2 3 3 5 8 9 7 6 5 4 4 4 4 4 4 3 2 2 3 2 2 3 3 3 2 2 2
16 15 16 16 17 17 15 13 12 11 10 9 7 7 6 5 5 4 4 4 6 7 8 6 6 5 4 5 4 4 3 3 2 2 2 3 4 2 2 3 3 2 2
19 19 19 18 17 16 15 13 12 11 11 10 9 8 7 5 4 3 4 5 4 6 7 6 6 5 4 5 4 4 4 3 4 3 2 1 1 2 2 3 4 3 2
17 17 16 14 13 13 13 12 12 12 11 11 10 10 9 7 5 5 6 5 4 4 5 6 6 5 5 5 4 4 4 4 4 3 3 3 2 3 3 4 4 3 3
15 15 15 15 14 15 14 13 13 12 12 12 11 11 10 9 8 7 7 6 4 4 6 6 5 5 5 5 5 4 4 4 4 4 4 4 4 3 3 3 3 3 3
12 15 17 17 16 16 15 14 14 13 12 12 11 10 9 8 7 7 7 7 6 6 6 6 6 6 6 6 5 4 4 3 4 4 4 3 4 3 4 4 3 2 2
11 12 13 15 15 16 16 15 15 13 12 12 11 10 9 8 8 7 6 6 6 6 6 6 6 6 6 6 5 4 5 4 4 4 4 3 3 3 3 3 4 4 3
9 10 10 11 13 13 13 13 13 13 11 11 11 11 9 9 8 6 7 6 6 6 6 6 6 6 5 5 5 4 4 4 4 4 4 4 3 3 3 3 3 4 5
7 8 9 9 10 10 11 12 13 12 11 11 10 9 9 8 7 7 7 6 5 6 6 7 7 7 6 6 5 6 5 6 5 4 4 5 4 3 3 3 3 3 4
6 8 9 9 9 9 10 11 12 12 12 11 10 9 8 8 8 8 7 7 6 5 6 6 6 6 6 6 6 7 6 6 6 5 5 5 4 4 3 3 3 3 4
5 6 7 7 7 8 8 9 10 12 11 10 10 10 9 8 9 9 8 7 7 6 5 5 6 6 6 6 6 7 6 6 6 6 6 6 4 5 3 3 3 3 3
6 6 6 6 6 7 8 8 8 9 9 10 10 10 10 10 9 8 8 7 7 6 6 5 6 6 6 6 6 6 6 6 6 5 5 5 5 6 5 4 4 3 2
6 5 5 6 5 5 5 5 5 7 8 8 9 9 9 8 7 7 7 7 7 7 6 5 6 6 6 6 7 6 6 6 5 4 4 5 5 6 5 4 3 3 2
5 4 4 5 6 6 6 5 4 5 6 8 9 8 7 7 7 7 7 6 6 6 5 5 6 6 6 7 9 8 6 6 6 5 5 5 5 5 6 7 6 6 5
4 2 4 5 5 5 6 6 5 4 6 7 7 7 7 8 8 8 7 7 7 6 5 5 5 6 7 9 8 8 6 5 6 6 5 5 4 4 3 4 4 4 6
3 3 3 4 4 4 4 5 5 4 5 5 6 6 6 7 8 7 8 7 6 6 6 6 6 5 6 8 7 7 5 5 5 6 5 5 4 4 4 3 2 3 3
4 3 3 3 4 4 4 5 4 4 4 4 5 5 6 6 6 7 8 7 6 6 5 5 5 6 6 8 8 6 3 3 4 4 4 5 4 4 5 3 3 3 5
2 2 2 2 3 3 4 5 5 4 4 4 4 4 4 5 5 6 5 4 5 5 5 5 5 6 5 7 8 6 3 3 2 2 3 4 5 5 4 4 4 4 5
2 2 2 2 1 2 3 4 4 4 4 3 3 3 4 4 4 4 3 4 4 4 4 4 4 4 6 6 7 7 4 3 3 2 2 2 4 5 4 4 5 7 5
2 2 2 1 0 2 3 3 3 3 2 3 3 3 2 3 3 3 3 3 4 3 3 3 3 3 3 4 5 6 5 4 3 3 3 3 4 5 5 5 6 7 4
2 2 2 2 1 1 2 2 2 2 2 2 2 2 2 2 2 3 4 3 4 4 3 3 3 2 1 2 3 5 5 5 3 3 4 4 5 5 4 6 6 4 2
2 1 1 1 2 2 2 3 3 2 2 2 2 2 2 1 1 2 2 3 3 4 4 4 4 3 2 2 2 2 2 3 2 2 2 3 4 3 4 3 3 2 3
2 1 2 2 3 2 2 2 2 2 2 2 2 2 2 2 2 1 2 3 3 5 5 4 5 5 5 6 6 4 3 3 3 2 0 1 1 1 2 2 2 2 2
2 1 1 1 3 2 2 2 2 3 3 1 2 2 2 2 2 1 1 3 2 2 4 6 6 4 6 7 6 5 4 4 5 4 2 2 2 3 3 3 3 3 3
Wind_Direction
179 176 174 172 170 169 169 172 172 178 174 172 175 179 195 199 201 202 199 198 198 190 182 190 190 186 191 205 201 192 212 246 184 38 340 326 317 267 245 225 216 223 226
172 175 175 175 176 176 178 177 179 181 182 186 182 181 182 198 201 204 200 201 199 194 191 185 194 195 191 200 200 180 173 242 157 141 75 346 337 323 280 262 234 231 217
182 180 179 182 180 183 187 186 186 186 187 182 170 176 169 199 208 212 210 209 199 196 195 191 189 192 190 201 207 192 184 210 237 173 156 161 245 299 315 294 261 230 210
184 183 182 185 186 189 189 187 185 187 189 182 180 182 190 201 212 208 212 215 202 196 197 195 191 195 198 204 211 197 192 186 222 235 202 191 179 188 302 316 302 278 231
188 188 188 188 187 187 187 188 185 187 188 188 189 192 201 206 210 203 204 211 211 200 197 196 189 194 200 207 211 202 198 192 201 206 207 209 206 191 194 270 303 314 279
191 191 191 185 182 183 184 184 184 189 189 191 193 195 198 199 200 204 203 207 214 218 209 203 194 194 197 206 210 207 203 207 207 205 195 188 195 209 195 230 261 278 282
189 189 187 185 184 185 186 185 185 191 192 193 197 200 200 198 202 203 204 204 209 220 220 209 200 201 204 205 201 201 211 210 209 211 212 210 213 199 188 197 239 262 278
186 189 190 189 187 187 187 186 189 194 194 197 201 201 200 203 208 206 205 208 212 217 215 204 204 205 202 204 195 197 213 213 216 226 222 225 230 209 201 195 195 250 292
184 186 187 187 186 187 189 188 189 192 196 197 197 199 201 203 206 205 203 207 211 212 205 203 203 206 204 200 193 206 216 216 222 230 231 233 240 229 220 207 191 191 242
176 178 181 185 187 188 187 184 187 193 195 196 198 201 202 203 202 198 201 204 206 209 202 206 206 207 206 203 198 209 217 217 231 228 231 238 242 244 231 220 213 196 200
163 171 174 183 184 182 181 184 188 189 193 197 199 203 204 204 202 204 208 205 206 204 206 209 205 204 207 207 209 219 216 219 231 234 232 239 239 245 246 232 221 212 194
145 162 166 170 175 178 181 186 188 190 194 194 192 198 202 199 201 207 208 203 203 204 205 202 202 207 209 208 212 225 225 221 228 232 231 242 243 242 246 236 234 228 213
128 144 153 160 168 172 177 184 187 191 192 190 192 195 200 203 208 209 205 201 201 202 202 199 204 212 215 216 219 219 221 223 226 226 226 234 230 244 245 239 242 246 243
134 137 147 161 168 175 179 180 187 186 184 187 191 198 202 206 211 210 203 204 202 201 205 207 211 216 219 221 220 213 215 222 226 224 225 231 226 233 234 242 241 241 243
119 133 148 153 153 160 170 170 176 178 181 186 194 203 203 202 205 209 204 204 204 207 206 209 218 221 220 222 214 215 219 224 231 235 238 238 235 237 231 232 224 217 225
126 123 136 146 156 161 163 165 178 183 177 185 201 205 199 196 200 205 201 200 205 209 207 215 219 223 229 226 218 214 218 221 223 235 247 247 248 247 236 230 224 214 217
121 150 161 158 163 169 171 171 180 184 180 187 195 200 203 201 203 207 201 204 207 203 205 218 222 225 230 227 223 219 214 218 222 227 235 248 252 239 235 240 246 246 239
148 188 176 162 164 164 168 166 150 164 184 193 199 203 203 208 205 201 205 209 207 207 211 216 222 224 232 225 221 219 217 222 229 228 222 228 235 237 212 219 241 262 262
165 178 181 164 154 154 161 147 149 156 171 202 204 201 197 203 204 205 210 207 203 207 214 217 218 224 239 228 216 206 208 227 245 247 231 214 215 223 199 192 229 270 282
142 132 123 116 135 169 155 145 153 163 192 220 211 199 186 188 202 205 206 206 207 212 215 225 224 222 231 230 214 201 201 224 245 262 239 218 211 214 197 196 213 247 267
135 119 104 114 164 180 150 156 160 179 200 209 202 199 184 184 197 195 197 199 205 212 223 231 233 225 224 224 214 199 195 205 213 226 243 237 215 218 218 213 222 237 251
128 136 130 138 195 141 144 162 183 198 182 178 173 168 167 183 190 189 208 205 198 208 225 229 251 248 229 222 209 193 187 185 195 219 227 236 230 232 236 234 239 247 253
166 163 157 170 234 212 154 169 229 207 176 171 173 166 163 180 189 197 205 207 197 196 209 213 226 246 253 240 211 190 184 189 199 221 225 233 244 243 245 245 248 250 237
207 183 124 174 216 215 182 198 218 202 174 179 192 188 178 205 231 222 213 207 203 199 204 208 218 225 230 220 204 180 182 191 201 233 252 252 254 249 248 258 260 237 225
228 221 193 211 226 212 203 212 193 157 169 198 210 207 201 198 225 255 255 222 221 207 199 207 204 203 217 221 205 195 204 206 202 173 28 324 305 295 287 275 258 250 242
221 210 216 244 240 220 216 220 192 164 161 195 237 220 214 215 202 205 315 340 288 255 219 211 201 207 204 198 203 209 213 209 183 155 187 228 238 241 245 248 253 250 243
Height
1521 1524 1527 1530 1532 1535 1537 1540 1542 1544 1546 1548 1550 1551 1553 1554 1556 1557 1558 1558 1559 1560 1561 1561 1561 1562 1562 1562 1563 1563 1563 1563 1564 1564 1563 1563 1562 1562 1561 1562 1562 1562 1562
1519 1522 1524 1527 1529 1532 1534 1537 1540 1542 1544 1546 1548 1550 1552 1553 1554 1555 1556 1557 1557 1558 1559 1559 1560 1560 1561 1561 1561 1561 1561 1562 1562 1563 1562 1561 1562 1560 1560 1560 1560 1560 1560
1513 1518 1521 1524 1526 1528 1531 1534 1536 1539 1542 1544 1546 1548 1550 1551 1552 1553 1554 1555 1556 1556 1557 1558 1558 1558 1559 1559 1559 1560 1560 1560 1561 1561 1562 1561 1560 1559 1559 1559 1559 1559 1558
1510 1514 1517 1519 1522 1525 1528 1531 1533 1536 1539 1542 1543 1545 1546 1547 1548 1550 1551 1553 1554 1555 1555 1556 1556 1557 1557 1557 1557 1558 1558 1558 1559 1559 1559 1560 1559 1559 1558 1558 1557 1557 1557
1506 1510 1512 1514 1517 1521 1525 1528 1530 1533 1536 1539 1540 1542 1544 1545 1547 1548 1549 1551 1552 1552 1553 1554 1554 1554 1555 1555 1555 1556 1556 1556 1557 1557 1557 1557 1557 1557 1557 1556 1555 1555 1555
1504 1506 1509 1512 1515 1518 1522 1525 1527 1530 1533 1535 1538 1539 1541 1543 1544 1545 1546 1548 1549 1550 1550 1551 1552 1552 1552 1553 1553 1553 1553 1554 1554 1555 1555 1555 1555 1554 1554 1554 1553 1552 1552
1500 1503 1506 1509 1511 1515 1518 1521 1524 1526 1529 1532 1534 1536 1538 1540 1541 1543 1544 1545 1546 1547 1547 1548 1549 1549 1550 1550 1550 1550 1551 1551 1551 1552 1552 1552 1552 1552 1552 1552 1551 1550 1550
1496 1498 1501 1503 1507 1510 1514 1517 1520 1522 1525 1528 1530 1533 1535 1537 1538 1540 1541 1542 1543 1544 1545 1546 1546 1547 1547 1548 1548 1548 1548 1548 1548 1549 1549 1549 1549 1549 1549 1549 1548 1547 1547
1494 1496 1498 1501 1504 1507 1509 1513 1516 1519 1522 1524 1527 1529 1531 1533 1535 1537 1539 1540 1541 1542 1542 1543 1543 1544 1545 1545 1545 1545 1545 1545 1546 1546 1546 1546 1546 1546 1546 1546 1546 1546 1544
1491 1494 1496 1499 1502 1504 1507 1511 1514 1516 1519 1521 1524 1526 1528 1530 1532 1534 1535 1536 1538 1539 1539 1540 1540 1541 1542 1542 1542 1542 1542 1542 1543 1543 1543 1543 1543 1543 1543 1543 1542 1542 1542
1490 1492 1494 1497 1500 1503 1506 1508 1511 1514 1516 1518 1520 1522 1524 1526 1528 1530 1531 1533 1534 1535 1536 1536 1537 1537 1538 1539 1539 1539 1539 1539 1539 1540 1540 1539 1539 1539 1539 1539 1539 1538 1538
1488 1490 1492 1495 1497 1500 1502 1505 1507 1510 1512 1515 1517 1519 1521 1523 1524 1526 1527 1529 1530 1531 1532 1532 1533 1534 1534 1535 1535 1536 1536 1536 1536 1536 1536 1536 1536 1535 1535 1535 1535 1535 1535
1487 1488 1491 1493 1495 1497 1499 1502 1504 1506 1509 1512 1514 1515 1516 1518 1520 1522 1523 1525 1526 1527 1528 1529 1530 1530 1531 1531 1532 1532 1533 1532 1532 1533 1533 1532 1532 1532 1532 1531 1531 1531 1531
1486 1487 1489 1491 1493 1495 1497 1498 1500 1503 1506 1508 1510 1511 1512 1514 1516 1518 1519 1521 1522 1523 1524 1525 1526 1526 1527 1528 1528 1528 1529 1529 1529 1529 1529 1529 1528 1528 1528 1528 1527 1527 1527
1485 1486 1488 1489 1490 1492 1494 1496 1498 1499 1501 1504 1505 1507 1509 1511 1513 1514 1515 1517 1518 1519 1520 1521 1521 1522 1523 1523 1524 1524 1525 1525 1525 1525 1525 1525 1524 1524 1524 1524 1524 1523 1523
1483 1485 1486 1487 1488 1489 1491 1493 1494 1496 1498 1499 1501 1503 1505 1507 1508 1510 1511 1512 1513 1514 1515 1516 1517 1517 1518 1519 1520 1520 1521 1521 1521 1521 1521 1521 1521 1520 1520 1520 1520 1519 1519
1482 1483 1484 1485 1486 1487 1489 1489 1492 1493 1494 1495 1497 1498 1500 1502 1503 1505 1507 1508 1508 1509 1510 1511 1512 1513 1514 1515 1516 1516 1517 1517 1517 1516 1517 1517 1516 1516 1516 1516 1515 1515 1515
1481 1482 1483 1484 1485 1486 1487 1487 1488 1490 1492 1492 1493 1495 1496 1497 1499 1500 1501 1503 1504 1505 1505 1506 1508 1509 1510 1510 1511 1512 1512 1512 1512 1512 1512 1512 1512 1512 1512 1512 1511 1510 1510
1480 1481 1481 1482 1482 1483 1484 1485 1486 1487 1487 1489 1489 1490 1491 1492 1494 1495 1496 1497 1498 1499 1500 1502 1503 1504 1505 1506 1506 1507 1507 1507 1507 1507 1507 1507 1508 1508 1508 1507 1506 1506 1505
1479 1478 1479 1479 1480 1481 1481 1482 1482 1483 1483 1484 1484 1486 1487 1489 1490 1491 1492 1493 1494 1495 1496 1497 1499 1499 1500 1501 1502 1502 1503 1502 1503 1503 1503 1503 1503 1503 1503 1503 1502 1501 1500
1477 1477 1477 1477 1478 1478 1478 1478 1478 1479 1480 1481 1482 1483 1483 1485 1486 1486 1488 1489 1491 1491 1492 1493 1494 1494 1495 1496 1497 1497 1497 1497 1497 1498 1498 1498 1499 1499 1499 1498 1498 1497 1496
1476 1475 1475 1475 1475 1475 1475 1475 1475 1476 1477 1478 1479 1480 1481 1481 1482 1483 1485 1486 1487 1487 1488 1488 1489 1489 1490 1491 1491 1492 1493 1493 1493 1493 1493 1493 1494 1494 1494 1493 1493 1492 1492
1474 1474 1473 1472 1473 1473 1473 1473 1473 1474 1474 1475 1476 1477 1478 1478 1479 1480 1481 1482 1483 1483 1483 1484 1485 1485 1485 1486 1487 1488 1488 1489 1489 1489 1489 1489 1489 1489 1489 1488 1488 1487 1486
1471 1471 1471 1471 1470 1470 1470 1471 1471 1472 1473 1473 1474 1474 1475 1475 1476 1477 1477 1478 1478 1479 1479 1480 1481 1481 1481 1482 1483 1483 1484 1484 1484 1484 1484 1485 1485 1485 1484 1483 1483 1482 1481
1469 1469 1468 1468 1468 1468 1468 1469 1469 1469 1470 1470 1470 1471 1472 1471 1472 1473 1473 1474 1474 1475 1475 1476 1477 1477 1477 1478 1479 1479 1479 1479 1480 1480 1480 1480 1480 1479 1479 1479 1478 1478 1477
1467 1466 1465 1465 1465 1465 1465 1466 1466 1466 1466 1467 1467 1467 1468 1468 1468 1469 1469 1470 1470 1471 1472 1473 1473 1474 1474 1475 1475 1475 1476 1476 1476 1475 1475 1475 1475 1474 1474 1474 1474 1473 1472